Tracking 18840 objects as of 19-November-2017
HD Live streaming from Space Station
objects crossing your sky now

FENGYUN 1C DEB

Track FENGYUN 1C DEB now!
10-day predictions


NORAD ID: 31383
Int'l Code: 1999-025BSP
Perigee: 816.8 km
Apogee: 988.2 km
Inclination: 99.3 °
Period: 102.9 minutes
Semi major axis: 7273 km
RCS: 0.0142 m2 (small)
Launch date: May 10, 1999
Source: People's Republic of China (PRC)
Launch site: Taiyaun Space Center, China (TSC)

Note: This is SATELLITE DEBRIS
aabbcc
Your satellite tracking list
Your tracking list is empty




NASA's NSSDC Master Catalog

Two Line Element Set (TLE):
1 31383U 99025BSP 17323.19055618  .00000069  00000-0  73636-4 0  9998
2 31383  99.2719 319.4940 0117829 138.8626 284.6029 13.99543068541132
Source of the keplerian elements: AFSPC